PulseSat

PulseSat

1998-067JK

Last updated on May 29, 2016, 9:36 a.m. UTC

1 41489U 98067JK  16150.18488480  .00019676  00000-0  28607-3 0  9995
2 41489  51.6417 152.7543 0000790  22.3894  53.8281 15.55771469   909
UTC
Height (km)
Latitude
Longitude
Inclination
Orbital Period

Next 30 passes for location: Hong Kong

Rise time Rise Azimuth (degrees) Set time Set Azimuth (degrees) Duration Max altitude (degrees)

No matching passes for this satellites

PulseSat

PulseSat is the new satellites software and hardware trackering solution by Pulsely.
Satellite Two Line Element Set source: US Air Force Space Command

Download PulseSat for iOS
© 2017 Pulsely Limited